This demonstration page uses our WeatherBlox Daily Observations layout. Learn more.

40.92945, -100.16068

Hourly Observations for August 23, 2018

Temp ( °F °C ) Dew Point ( °F °C ) Humidity (%) Winds ( mph kmh ) Pressure ( in mb ) Visibility ( mi km ) Precip ( " mm )
12:15 am 00:15 Cloudy with Mist and Fog 65 18.1 61 16.3 89 89 SSE 10 17 30.03 1017 5 8.0467 0 0
12:35 am 00:35 Cloudy with Mist and Fog 64 17.8 62 16.6 93 93 SSE 9 15 30.03 1017 2.5 4.02335 0 0
12:55 am 00:55 Cloudy with Mist and Fog 64 17.8 62 16.9 95 95 SSE 10 17 30.03 1017 2.5 4.02335 0 0
1:15 am 01:15 Cloudy with Mist and Fog 64 17.9 63 17 95 95 SSE 9 15 30.03 1017 3 4.82802 0 0
1:35 am 01:35 Cloudy with Mist and Fog 64 18 63 17 94 94 SSE 9 15 30.03 1017 4 6.43736 0 0
1:55 am 01:55 Cloudy with Mist and Fog 64 18 63 17.1 95 95 SSE 9 15 30 1016 2.5 4.02335 0 0
2:15 am 02:15 Cloudy with Mist and Fog 64 18 63 17.1 95 95 SSE 8 13 30 1016 3 4.82802 0 0
2:35 am 02:35 Cloudy with Mist and Fog 65 18.1 63 17.2 95 95 SSE 8 13 30 1016 3 4.82802 0 0
2:55 am 02:55 Cloudy with Mist and Fog 65 18.2 63 17.3 95 95 SSE 9 15 29.97 1015 3 4.82802 0 0
3:15 am 03:15 Cloudy with Mist and Fog 65 18.3 64 17.5 95 95 SSE 12 19 29.97 1015 3 4.82802 0 0
3:35 am 03:35 Cloudy with Mist and Fog 65 18.5 64 17.5 94 94 SSE 10 17 29.97 1015 3 4.82802 0 0
3:55 am 03:55 Cloudy with Mist and Fog 65 18.5 64 17.6 95 95 SSE 12 19 29.97 1015 4 6.43736 0 0
4:15 am 04:15 Cloudy with Mist and Fog 65 18.5 64 17.6 95 95 SSE 14 22 29.97 1015 3 4.82802 0 0
4:35 am 04:35 Cloudy with Mist and Fog 65 18.5 64 17.6 95 95 SSE 13 20 29.97 1015 3 4.82802 0 0
4:55 am 04:55 Cloudy with Mist and Fog 65 18.6 64 17.7 95 95 SSE 12 19 29.97 1015 3 4.82802 0 0
5:15 am 05:15 Cloudy with Mist and Fog 65 18.6 64 17.7 95 95 SSE 13 20 29.97 1015 4 6.43736 0 0
5:35 am 05:35 Cloudy with Mist and Fog 65 18.6 64 17.6 94 94 SSE 12 19 29.94 1014 5 8.0467 0 0
5:55 am 05:55 Cloudy 66 18.7 64 17.7 94 94 S 13 20 29.94 1014 7 11.26538 0 0
6:15 am 06:15 Cloudy 66 18.7 64 17.6 93 93 S 10 17 29.94 1014 7 11.26538 0 0
6:35 am 06:35 Cloudy 66 18.8 64 17.7 93 93 SSE 10 17 29.94 1014 7 11.26538 0 0
6:55 am 06:55 Cloudy 66 18.7 64 17.6 93 93 SSE 9 15 29.94 1014 7 11.26538 0 0
7:15 am 07:15 Cloudy with Mist and Fog 66 18.7 64 17.7 94 94 SSE 10 17 29.94 1014 5 8.0467 0 0
7:35 am 07:35 Cloudy with Mist and Fog 66 18.7 64 17.8 95 95 SSE 12 19 29.91 1013 4 6.43736 0 0
7:55 am 07:55 Cloudy with Mist and Fog 66 18.8 64 17.8 94 94 S 14 22 29.91 1013 5 8.0467 0 0
8:15 am 08:15 Cloudy with Mist and Fog 66 18.8 64 17.8 94 94 SSE 16 26 29.94 1014 5 8.0467 0 0
8:35 am 08:35 Cloudy with Mist and Fog 66 19 64 18 94 94 SSE 13 20 29.94 1014 4 6.43736 0 0
8:55 am 08:55 Cloudy with Mist and Fog 66 19 64 18 94 94 S 13 20 29.94 1014 4 6.43736 0 0
9:15 am 09:15 Cloudy with Mist and Fog 67 19.2 65 18.1 93 93 S 14 22 29.91 1013 4 6.43736 0 0
9:35 am 09:35 Cloudy with Mist and Fog 67 19.5 65 18.3 93 93 S 16 26 29.91 1013 3 4.82802 0 0
9:55 am 09:55 Cloudy with Mist and Fog 67 19.6 65 18.5 93 93 S 14 22 29.88 1012 4 6.43736 0 0
10:15 am 10:15 Cloudy with Mist and Fog 68 19.8 65 18.5 92 92 S 14 22 29.88 1012 4 6.43736 0 0
10:35 am 10:35 Cloudy with Mist and Fog 68 20 65 18.6 92 92 S 12 19 29.88 1012 5 8.0467 0 0
10:55 am 10:55 Cloudy with Mist and Fog 68 20.1 65 18.6 91 91 S 14 22 29.85 1011 5 8.0467 0 0
11:15 am 11:15 Cloudy 69 20.4 65 18.5 89 89 S 12 19 29.85 1011 7 11.26538 0 0
11:35 am 11:35 Cloudy 69 20.5 65 18.6 89 89 S 10 17 29.85 1011 7 11.26538 0 0
11:55 am 11:55 Cloudy 69 20.8 66 18.8 88 88 S 9 15 29.85 1011 7 11.26538 0 0
12:15 pm 12:15 Cloudy with Mist and Fog 70 20.9 66 19 89 89 S 12 19 29.85 1011 5 8.0467 0 0
12:35 pm 12:35 Cloudy with Mist and Fog 70 21 66 19 88 88 S 14 22 29.85 1011 5 8.0467 0 0
12:55 pm 12:55 Cloudy with Mist and Fog 69 20.8 66 19.1 90 90 SSE 12 19 29.83 1010 4 6.43736 0 0
1:15 pm 13:15 Cloudy with Mist and Fog 70 21.1 66 19.1 88 88 S 8 13 29.83 1010 4 6.43736 0 0
1:35 pm 13:35 Cloudy with Mist and Fog 71 21.4 66 19.1 87 87 S 7 11 29.83 1010 4 6.43736 0 0
1:55 pm 13:55 Cloudy with Mist and Fog 70 21.3 67 19.2 88 88 S 8 13 29.83 1010 4 6.43736 0 0
2:15 pm 14:15 Cloudy with Mist and Fog 70 21.3 67 19.2 88 88 S 10 17 29.83 1010 4 6.43736 0 0
2:35 pm 14:35 Cloudy with Mist and Fog 70 21.2 67 19.5 90 90 S 9 15 29.83 1010 3 4.82802 0 0
2:55 pm 14:55 Cloudy with Mist and Fog 71 21.6 67 19.6 88 88 S 12 19 29.83 1010 3 4.82802 0 0
3:15 pm 15:15 Cloudy with Mist and Fog 72 22.2 68 20 87 87 SSE 9 15 29.83 1010 3 4.82802 0 0
3:35 pm 15:35 Cloudy with Haze 73 23 68 19.9 83 83 SSE 9 15 29.77 1008 4 6.43736 0 0
3:55 pm 15:55 Cloudy with Haze 74 23.3 68 20 82 82 SE 10 17 29.77 1008 5 8.0467 0 0
4:15 pm 16:15 Cloudy with Haze 74 23.5 68 20 81 81 SSE 7 11 29.77 1008 5 8.0467 0 0
4:35 pm 16:35 Cloudy 76 24.4 68 19.9 76 76 S 7 11 29.77 1008 7 11.26538 0 0
4:55 pm 16:55 Mostly Cloudy 77 25.1 68 19.8 73 73 S 6 9 29.77 1008 7 11.26538 0 0
5:15 pm 17:15 Partly Cloudy 77 25.2 68 20.1 73 73 SSE 8 13 29.74 1007 7 11.26538 0 0
5:35 pm 17:35 Partly Cloudy 77 25 69 20.6 77 77 SSE 9 15 29.74 1007 7 11.26538 0 0
5:55 pm 17:55 Partly Cloudy 77 25 69 20.5 76 76 SE 12 19 29.71 1006 7 11.26538 0 0
6:15 pm 18:15 Partly Cloudy 77 25 68 20.2 75 75 SSE 10 17 29.71 1006 7 11.26538 0 0
6:35 pm 18:35 Sunny 77 24.8 68 20.1 75 75 S 10 17 29.71 1006 7 11.26538 0 0
6:55 pm 18:55 Sunny 76 24.6 68 20.1 76 76 S 8 13 29.71 1006 7 11.26538 0 0
7:15 pm 19:15 Sunny 76 24.2 68 20.2 78 78 S 8 13 29.71 1006 7 11.26538 0 0
7:35 pm 19:35 Sunny 74 23.6 68 20.1 81 81 SSE 9 15 29.71 1006 7 11.26538 0 0
7:55 pm 19:55 Hazy 73 23 68 20 83 83 SSE 9 15 29.71 1006 5 8.0467 0 0
8:15 pm 20:15 Sunny with Mist and Fog 72 22.2 68 19.8 86 86 SSE 8 13 29.71 1006 5 8.0467 0 0
8:35 pm 20:35 Clear with Mist and Fog 71 21.6 68 19.9 90 90 SSE 9 15 29.71 1006 5 8.0467 0 0
8:55 pm 20:55 Clear with Mist and Fog 70 21.2 67 19.7 91 91 SSE 6 9 29.74 1007 5 8.0467 0 0
9:15 pm 21:15 Clear with Mist and Fog 70 21.1 68 19.8 92 92 SSE 8 13 29.74 1007 5 8.0467 0 0
9:35 pm 21:35 Clear with Mist and Fog 70 21 68 19.8 93 93 SE 7 11 29.74 1007 4 6.43736 0 0
9:55 pm 21:55 Clear with Mist and Fog 70 21 68 19.8 93 93 SSE 8 13 29.74 1007 4 6.43736 0 0
10:15 pm 22:15 Clear with Mist and Fog 69 20.6 67 19.6 94 94 SSE 7 11 29.74 1007 3 4.82802 0 0
10:35 pm 22:35 Mostly Cloudy with Mist and Fog 69 20.4 67 19.5 95 95 S 7 11 29.74 1007 2.5 4.02335 0 0
10:55 pm 22:55 Cloudy with Mist and Fog 70 21 68 20.2 95 95 S 9 15 29.74 1007 3 4.82802 0 0
11:15 pm 23:15 Cloudy with Mist and Fog 70 21.2 69 20.3 95 95 S 7 11 29.74 1007 2.5 4.02335 0 0
11:35 pm 23:35 Cloudy with Mist and Fog 70 21.2 69 20.3 95 95 S 6 9 29.74 1007 2 3.21868 0 0
11:55 pm 23:55 Cloudy with Mist and Fog 70 21.3 69 20.5 95 95 S 7 11 29.74 1007 2 3.21868 0 0

Powered by AerisWeather